This is the latest recevied weather packets stored in our database for station/object WI5ARD. If no packets are shown the sender has not sent any weather packets the latest 10 day(s).
| Time | Temp. | Humidity | Pressure | Rain* | Wind** | Luminosity | Snow |
|---|---|---|---|---|---|---|---|
| 1777974336 | 13.89° C | 92% | 1014.3 hPa | 0 mm | - | 0 W/m² | - |
| 1777973436 | 13.89° C | 92% | 1014.4 hPa | 0 mm | - | 0 W/m² | - |
| 1777972220 | 13.89° C | 91% | 1014.2 hPa | 0 mm | - | 0 W/m² | - |
| 1777968618 | 13.89° C | 90% | 1014.4 hPa | 0 mm | - | 0 W/m² | - |
| 1777967721 | 13.89° C | 89% | 1014.5 hPa | 0 mm | - | 0 W/m² | - |
| 1777966520 | 13.89° C | 88% | 1014.7 hPa | 0 mm | - | 0 W/m² | - |
| 1777964721 | 14.44° C | 88% | 1015 hPa | 0 mm | - | 0 W/m² | - |
| 1777963536 | 14.44° C | 86% | 1015.3 hPa | 0 mm | - | 0 W/m² | - |
| 1777962021 | 14.44° C | 85% | 1015.4 hPa | 0 mm | - | 0 W/m² | - |
| 1777960220 | 15° C | 84% | 1015.4 hPa | 0 mm | - | 0 W/m² | - |
| 1777958420 | 15° C | 82% | 1015.4 hPa | 0 mm | - | 0 W/m² | - |
| 1777954821 | 16.67° C | 77% | 1015.9 hPa | 0 mm | - | 0 W/m² | - |
| 1777954550 | 16.67° C | 76% | 1015.9 hPa | 0 mm | - | 0 W/m² | - |
| 1777954222 | 16.67° C | 76% | 1015.9 hPa | 0 mm | - | 0 W/m² | - |
| 1777952735 | 16.67° C | 75% | 1015.8 hPa | 0 mm | - | 0 W/m² | - |
| 1777951837 | 17.22° C | 74% | 1015.8 hPa | 0 mm | - | 0 W/m² | - |
| 1777950617 | 17.22° C | 73% | 1015.7 hPa | 0 mm | - | 0 W/m² | - |
| 1777949143 | 17.78° C | 71% | 1015.7 hPa | 0 mm | - | 0 W/m² | - |
| 1777948818 | 17.78° C | 71% | 1015.9 hPa | 0 mm | - | 0 W/m² | - |
| 1777948238 | 17.78° C | 71% | 1015.7 hPa | 0 mm | - | 0 W/m² | - |
| 1777946437 | 18.33° C | 68% | 1015.5 hPa | 0 mm | - | 0 W/m² | - |
| 1777945217 | 18.89° C | 66% | 1015.1 hPa | 0 mm | - | 0 W/m² | - |
| 1777943118 | 20° C | 62% | 1015.1 hPa | 0 mm | - | 0 W/m² | - |
| 1777941622 | 21.11° C | 58% | 1015.3 hPa | 0 mm | - | 0 W/m² | - |
| 1777941322 | 21.11° C | 57% | 1015.3 hPa | 0 mm | - | 0 W/m² | - |
* Rain latest hour (hover to see other rain measurements)
** Current wind speed in m/s (hover to see current wind gust speed)